1128 visiteurs
Prévisions de votre ville :
Vigilance : 4 départements Mise à jour le 06/12/2019 à 16:10 - Voir la carte

Paris Roissy CDG (95380) le 06/12/2019 à 17:00 Choisir station

6°C 93 % SSO Vit. moyenne 26 kmh/h

Relevés météo quotidiens pour la station de :

UTC
S: Synop
M: Metar
Loc T°C
(°C)
Td
(°C)
HR
(%)
Vis
(km)
Néb
(octa)
Vent
(km/h)
Pression
(mb)
Précipitations
(mm)
Temps
              MOY
10 min
DIR RAF 1h MESURE VAR SUR 3h    
S 00 h 02h 18.5 13.4 72 55 - 6 6 1014.8 -0.4/3h 0.0/6h - 0.0/3h -
S 01 h 03h 18.3 13.4 73 45 - 2 4 1014.8 -0.3/3h 0.0/1h -
S 02 h 04h 16.7 13.2 80 19 - 4 4 1014.8 -0.1/3h 0.0/1h -
S 03 h 05h 16.0 13.5 85 5 - 4 6 1014.9 -0.1/3h 0.0/3h -
S 04 h 06h 16.6 13.7 83 15 - 6 7 1014.9 0.0/3h 0.0/1h -
S 05 h 07h 19.9 15.3 75 17 - 2 9 1015.1 +0.5/3h 0.0/1h -
S 06 h 08h 23.6 16.4 64 19 - 0 4 1014.9 +0.7/3h 0.0/12h - 0.0/3h - 0.0/24h -
S 07 h 09h 26.4 16.6 55 24 - 6 9 1014.8 +0.7/3h 0.0/1h -
S 08 h 10h 30.1 16.5 44 19 - 11 24 1014.7 +0.5/3h 0.0/1h -
S 09 h 11h 31.8 15.3 37 29 - 11 28 1014.8 +0.5/3h 0.0/3h -
S 10 h 12h 33.2 16.5 37 19 - 11 28 1014.9 +0.6/3h 0.0/1h -
S 11 h 13h 34.0 17.7 38 19 - 15 37 1015.1 +0.7/3h 0.0/1h -
S 12 h 14h 33.9 15.8 34 30 - 7 19 1015.1 +0.5/3h 0.0/6h - 0.0/3h -
S 13 h 15h 34.4 14.8 31 19 - 15 41 1015.2 +0.4/3h 0.0/1h -
S 14 h 16h 34.4 14.8 31 19 - 13 31 1014.9 -0.2/3h 0.0/1h -
S 15 h 17h 34.9 14.8 30 40 - 15 30 1014.7 -0.4/3h 0.0/3h -
S 16 h 18h 35.4 14.1 28 19 - 4 15 1013.9 -1.2/3h 0.0/1h -
S 17 h 19h 34.7 14.6 30 55 - 7 15 1013.8 -1.1/3h 0.0/1h -
S 18 h 20h 33.4 15.9 35 45 - 7 15 1013.6 -1.1/3h 0.0/12h - 0.0/3h -
S 19 h 21h 31.3 18.6 47 50 - 9 24 1013.8 -0.4/3h 0.0/1h -
S 20 h 22h 29.1 18.8 54 30 - 13 26 1014.6 +0.4/3h 0.0/1h -
S 21 h 23h 25.6 16.2 56 45 - 9 20 1016.0 +1.7/3h 0.0/3h -
S 22 h 00h 24.8 16.5 60 40 - 4 13 1016.2 +1.8/3h 0.0/1h -
S 23 h 01h 24.4 16.4 61 40 - 4 7 1016.2 +1.2/3h 0.0/1h -
evolution des temperatures
cumul des precipitations
vent moyen et rafales
pression atmospherique

Un tiret (-) signifie que les données ne sont pas disponibles.

Passez la souris sur les pictos temps pour avoir plus de précisions. Passez les flèches sur l'icône de la direction du vent pour voir la direction précise en degrés.

Les données de l'heure en cours sont disponibles à partir de H+15 minutes.


S signifie station Synop, plus complète qu'une station Metar (M). Il y a +1h de différence entre l'heure UTC et l'heure légale en hiver et +2h en été.

Td est la mesure du point de rosée.

HR est l'humidité relative/p>

Vis est la visibilité

Néb est la nébulosité du ciel (couverture nuageuse) exprimée en octas (de 0/8 à 8/8).

Vent moy 10 min donne le vent moyen sur les 10 minutes qui précèdent le relevé.

Vent raf 1h donne la rafale maximale mesurée dans l'heure qui précède le relevé.


Les données les plus anciennes remontent à avril 2014.

Les données présentées sur cette page proviennent des stations météo officielles. Les relevés sont effectués aux normes en vigueur (anémomètre à 10m de haut, thermomètre sous abri normalisé à 2m du sol...)

Météo 60 décline toute responsabilité en cas d'absence de données, d'erreurs, de mauvaise utilisation ou interprétation et n'est pas habilité à fournir des certificats intempéries.